DW8248 Weather Reports


Display with metric or nautical units.
time (UTC)temp
F
wind
direction
speed
MPH
gust
MPH
rain 1hr
in
rain 24hr
in
rain mn
in
humidity
%
barometer
mb
20190418221556 79 143 11.0 21.0 0.00 0.00 0.00 84 1013.1
20190418220555 79 130 10.0 21.0 0.00 0.00 0.00 83 1013.4
20190418215544 79 141 10.0 18.0 0.00 0.00 0.00 83 1013.4
20190418214532 79 114 9.0 18.0 0.00 0.00 0.00 83 1013.5
20190418213500 79 161 10.0 18.0 0.00 0.00 0.00 83 1013.6
20190418212503 79 107 10.0 17.0 0.00 0.00 0.00 83 1013.5
20190418211448 79 123 13.0 20.0 0.00 0.00 0.00 81 1013.5
20190418210458 80 146 12.0 22.0 0.00 0.00 0.00 80 1013.4
20190418205443 80 149 12.0 23.0 0.00 0.00 0.00 80 1013.5
20190418204456 80 146 14.0 29.0 0.00 0.00 0.00 80 1013.8
20190418203432 80 157 15.0 29.0 0.00 0.00 0.00 79 1013.7
20190418202444 80 161 12.0 21.0 0.00 0.00 0.00 80 1013.8
20190418201423 80 121 12.0 19.0 0.00 0.00 0.00 81 1014.1
20190418200446 80 117 13.0 30.0 0.00 0.00 0.00 80 1014.1
20190418195440 80 113 15.0 30.0 0.00 0.00 0.00 79 1014.1
20190418194408 80 162 13.0 21.0 0.00 0.00 0.00 81 1014.3
20190418193426 80 143 12.0 20.0 0.00 0.00 0.00 81 1014.4
20190418192435 80 121 12.0 22.0 0.00 0.00 0.00 81 1014.6
20190418191418 79 136 13.0 23.0 0.00 0.00 0.00 81 1014.8
20190418190419 80 155 13.0 23.0 0.00 0.00 0.00 80 1014.9
20190418185426 79 121 12.0 21.0 0.00 0.00 0.00 81 1015.0
20190418184429 79 121 12.0 21.0 0.00 0.00 0.00 81 1015.2
20190418183419 80 144 10.0 18.0 0.00 0.00 0.00 81 1015.4
20190418182439 79 120 11.0 18.0 0.00 0.00 0.00 82 1015.5
20190418181419 79 127 9.0 19.0 0.00 0.00 0.00 83 1015.6
20190418180406 79 131 11.0 19.0 0.00 0.00 0.00 81 1015.7
20190418175418 79 104 11.0 18.0 0.00 0.00 0.00 83 1015.7
20190418174429 78 153 9.0 18.0 0.00 0.00 0.00 83 1015.9
20190418173438 79 97 9.0 18.0 0.00 0.00 0.00 81 1015.9
20190418172458 79 152 11.0 18.0 0.00 0.00 0.00 81 1015.9
20190418171505 79 144 9.0 17.0 0.00 0.00 0.00 82 1016.1
20190418170434 79 145 9.0 17.0 0.00 0.00 0.00 81 1016.2
20190418165410 79 126 10.0 16.0 0.00 0.00 0.00 81 1016.3
20190418164431 79 121 8.0 16.0 0.00 0.00 0.00 81 1016.3
20190418163447 78 117 9.0 17.0 0.00 0.00 0.00 82 1016.4
20190418162445 78 166 9.0 17.0 0.00 0.00 0.00 81 1016.5
20190418161438 78 142 10.0 16.0 0.00 0.00 0.00 80 1016.7
20190418160408 78 145 10.0 16.0 0.00 0.00 0.00 81 1016.7
20190418155423 78 124 10.0 19.0 0.00 0.00 0.00 80 1017.0
20190418154445 78 138 9.0 19.0 0.00 0.00 0.00 79 1017.0
20190418153422 78 161 10.0 19.0 0.00 0.00 0.00 79 1016.9
20190418152429 78 107 10.0 17.0 0.00 0.00 0.00 79 1016.9
20190418151447 77 150 10.0 18.0 0.00 0.00 0.00 78 1016.8
20190418150506 77 142 10.0 18.0 0.00 0.00 0.00 78 1016.8
20190418145516 78 125 10.0 18.0 0.00 0.00 0.00 78 1016.7
20190418144446 77 120 10.0 18.0 0.00 0.00 0.00 78 1016.7
20190418143419 77 137 10.0 17.0 0.00 0.00 0.00 77 1016.8
20190418142354 77 112 9.0 16.0 0.00 0.00 0.00 76 1016.6
20190418141355 77 106 9.0 16.0 0.00 0.00 0.00 77 1016.4
20190418140359 77 123 9.0 15.0 0.00 0.00 0.00 75 1016.4
20190418135342 77 128 8.0 16.0 0.00 0.00 0.00 74 1016.5
20190418134345 77 119 9.0 16.0 0.00 0.00 0.00 73 1016.6
20190418133308 77 148 10.0 16.0 0.00 0.00 0.00 72 1016.6
20190418132244 76 146 8.0 16.0 0.00 0.00 0.00 71 1016.5
20190418131253 76 161 8.0 14.0 0.00 0.00 0.00 72 1016.5
20190418130230 76 151 7.0 13.0 0.00 0.00 0.00 71 1016.6
20190418125222 76 146 8.0 13.0 0.00 0.00 0.00 71 1016.5
20190418124159 76 111 5.0 13.0 0.00 0.00 0.00 72 1016.5
20190418123210 76 115 6.0 13.0 0.00 0.00 0.00 72 1016.4
20190418122207 76 129 6.0 12.0 0.00 0.00 0.00 72 1016.4
20190418121148 75 120 6.0 13.0 0.00 0.00 0.00 72 1016.2
20190418120131 75 152 6.0 13.0 0.00 0.00 0.00 70 1016.0
20190418115128 75 134 6.0 12.0 0.00 0.00 0.00 72 1016.0
20190418114145 75 139 6.0 15.0 0.00 0.00 0.00 72 1016.0
20190418113154 74 141 6.0 15.0 0.00 0.00 0.00 71 1015.8
20190418112144 74 133 7.0 13.0 0.00 0.00 0.00 71 1015.7
20190418111156 74 141 6.0 13.0 0.00 0.00 0.00 71 1015.8
20190418110157 74 122 7.0 13.0 0.00 0.00 0.00 72 1015.8
20190418105135 74 128 7.0 13.0 0.00 0.00 0.00 72 1015.8
20190418104107 74 130 7.0 13.0 0.00 0.00 0.00 72 1015.8
20190418103107 74 142 6.0 11.0 0.00 0.00 0.00 73 1015.8
20190418102034 74 134 6.0 13.0 0.00 0.00 0.00 73 1015.9
20190418101049 74 132 6.0 12.0 0.00 0.00 0.00 74 1015.8
20190418100045 74 135 6.0 12.0 0.00 0.00 0.00 74 1015.8
20190418095106 74 139 6.0 11.0 0.00 0.00 0.00 74 1015.8
20190418094117 74 139 4.0 11.0 0.00 0.00 0.00 73 1015.9
20190418093122 74 138 4.0 8.0 0.00 0.00 0.00 71 1015.9
20190418092134 74 123 4.0 12.0 0.00 0.00 0.00 72 1015.9
20190418091152 74 146 6.0 12.0 0.00 0.00 0.00 74 1015.9
20190418090125 74 150 4.0 10.0 0.00 0.00 0.00 76 1015.9
20190418085056 74 160 2.0 5.0 0.00 0.00 0.00 74 1015.9
20190418084051 73 144 1.0 4.0 0.00 0.00 0.00 72 1015.9
20190418083041 73 136 2.0 4.0 0.00 0.00 0.00 70 1016.0
20190418082041 73 136 2.0 6.0 0.00 0.00 0.00 69 1016.0
20190418081043 73 144 3.0 7.0 0.00 0.00 0.00 68 1015.9
20190418080030 74 147 4.0 10.0 0.00 0.00 0.00 67 1015.9
20190418075044 74 150 5.0 10.0 0.00 0.00 0.00 68 1016.0
20190418074040 74 150 5.0 10.0 0.00 0.00 0.00 69 1016.2
20190418073013 74 144 5.0 9.0 0.00 0.00 0.00 69 1016.2
20190418072033 74 141 5.0 8.0 0.00 0.00 0.00 70 1016.3
20190418071016 74 142 4.0 9.0 0.00 0.00 0.00 68 1016.3
20190418065951 74 134 5.0 9.0 0.00 0.00 0.00 68 1016.5
20190418064955 74 136 4.0 11.0 0.00 0.00 0.00 69 1016.5
20190418063926 74 142 5.0 11.0 0.00 0.00 0.00 70 1016.6
20190418062853 74 137 6.0 11.0 0.00 0.00 0.00 70 1016.7
20190418061907 74 144 5.0 10.0 0.00 0.00 0.00 71 1016.9
20190418060917 74 130 6.0 12.0 0.00 0.00 0.00 71 1017.0
20190418055840 74 158 6.0 12.0 0.00 0.00 0.00 71 1017.1
20190418054831 74 132 6.0 12.0 0.00 0.00 0.00 72 1017.3
20190418053803 74 154 7.0 12.0 0.00 0.00 0.00 73 1017.5
20190418052742 74 144 5.0 12.0 0.00 0.00 0.00 73 1017.6
20190418051743 74 163 6.0 13.0 0.00 0.00 0.00 74 1017.7
20190418050740 75 144 6.0 13.0 0.00 0.00 0.00 74 1017.8
20190418045800 75 130 7.0 13.0 0.00 0.00 0.00 72 1017.9
20190418044753 75 139 6.0 12.0 0.00 0.00 0.00 72 1018.0
20190418043748 75 157 5.0 11.0 0.00 0.00 0.00 72 1018.1
20190418042731 75 101 4.0 11.0 0.00 0.00 0.00 73 1018.0
20190418041659 75 119 0.0 9.0 0.00 0.00 0.00 72 1018.1
20190418040636 75 122 4.0 10.0 0.00 0.00 0.00 72 1018.0
20190418035618 75 117 6.0 11.0 0.00 0.00 0.00 72 1018.1
20190418034635 75 134 6.0 11.0 0.00 0.00 0.00 71 1018.2
20190418033613 74 142 5.0 9.0 0.00 0.00 0.00 72 1018.3
20190418032616 74 117 6.0 10.0 0.00 0.00 0.00 73 1018.3
20190418031627 74 134 5.0 13.0 0.00 0.00 0.00 73 1018.3
20190418030620 74 143 7.0 13.0 0.00 0.00 0.00 73 1018.2
20190418025606 74 137 6.0 15.0 0.00 0.00 0.00 73 1018.1
20190418024530 74 122 7.0 15.0 0.00 0.00 0.00 72 1018.2
20190418023520 74 126 8.0 13.0 0.00 0.00 0.00 72 1018.1
20190418022540 75 96 6.0 13.0 0.00 0.00 0.00 73 1018.1
20190418021600 75 137 7.0 13.0 0.00 0.00 0.00 71 1018.0
20190418020541 74 111 7.0 12.0 0.00 0.00 0.00 72 1018.1
20190418015558 75 108 6.0 13.0 0.00 0.00 0.00 70 1018.2
20190418014523 75 103 6.0 13.0 0.00 0.00 0.00 70 1018.1
20190418013529 74 108 6.0 12.0 0.00 0.00 0.00 71 1018.0
20190418012547 75 96 6.0 13.0 0.00 0.00 0.00 69 1018.0
20190418011521 75 123 7.0 13.0 0.00 0.00 0.00 69 1017.8
20190418010513 75 101 5.0 12.0 0.00 0.00 0.00 70 1017.8
20190418005533 75 115 6.0 12.0 0.00 0.00 0.00 69 1017.8
20190418004546 75 121 7.0 13.0 0.00 0.00 0.00 68 1017.7
20190418003544 75 134 6.0 13.0 0.00 0.00 0.00 69 1017.7
20190418002538 75 117 6.0 11.0 0.00 0.00 0.00 67 1017.7
20190418001520 75 126 7.0 15.0 0.00 0.00 0.00 67 1017.6
20190418000502 75 106 7.0 15.0 0.00 0.00 0.00 67 1017.5
20190417235521 75 110 7.0 12.0 0.00 0.00 0.00 67 1017.5
20190417234542 75 136 7.0 12.0 0.00 0.00 0.00 67 1017.5
20190417233550 75 92 6.0 14.0 0.00 0.00 0.00 68 1017.6
20190417232547 76 114 7.0 14.0 0.00 0.00 0.00 69 1017.5
20190417231538 76 125 6.0 11.0 0.00 0.00 0.00 70 1017.6
20190417230558 76 72 5.0 11.0 0.00 0.00 0.00 68 1017.6
20190417225542 76 94 5.0 11.0 0.00 0.00 0.00 68 1017.7
20190417224549 76 111 6.0 11.0 0.00 0.00 0.00 67 1017.6
20190417223552 76 73 6.0 12.0 0.00 0.00 0.00 66 1017.7
20190417222523 77 108 7.0 14.0 0.00 0.00 0.00 67 1017.7